Location: Unspecified
(0.0000°N, 0.0000°E)
Time: 20:58:37
(UTC+00:00)

Tiros 1 despin weight - Pass Details

Date: 01 June 2022
Orbit: 591 x 639 km, 48.2° (Epoch: 25 June)

Event Time Altitude Azimuth Distance (km) Brightness Sun altitude
Rises 13:51:09 0° 256° (WSW) 2,929 ? 54.7°
Reaches altitude 10° 13:54:50 10° 285° (WNW) 2,012 ? 53.9°
Maximum altitude 13:56:46 12° 310° (NW) 1,848 ? 53.6°
Drops below altitude 10° 13:58:42 10° 335° (NNW) 2,001 ? 53.2°
Sets 14:02:21 0° 5° (N) 2,894 ? 52.5°
